Time,TemperatureF,DewpointF,PressureIn,WindDirection,WindDirectionDegrees,WindSpeedMPH,WindSpeedGustMPH,Humidity,HourlyPrecipIn,Conditions,Clouds,dailyrainin,SolarRadiationWatts/m^2,SoftwareType,DateUTC
2013-04-28 00:01:00,57.9,42.3,30.24,South,187,1.0,2.0,56,0.00,,,0.00,0.00,VWS V14.01,2013-04-28 04:01:00,
2013-04-28 00:02:00,57.9,42.3,30.24,South,180,7.0,8.0,56,0.00,,,0.00,0.00,VWS V14.01,2013-04-28 04:02:00,
2013-04-28 00:07:00,57.8,42.7,30.24,South,188,1.0,2.0,57,0.00,,,0.00,0.00,VWS V14.01,2013-04-28 04:07:00,
2013-04-28 00:12:00,57.7,42.1,30.24,South,190,4.0,7.0,56,0.00,,,0.00,0.00,VWS V14.01,2013-04-28 04:12:00,
2013-04-28 00:18:00,57.8,42.7,30.24,South,184,2.0,6.0,57,0.00,,,0.00,0.00,VWS V14.01,2013-04-28 04:18:00,
2013-04-28 00:23:00,57.8,42.7,30.24,SSW,197,0.0,4.0,57,0.00,,,0.00,0.00,VWS V14.01,2013-04-28 04:23:00,
2013-04-28 00:28:00,57.7,42.6,30.23,South,169,4.0,5.0,57,0.00,,,0.00,0.00,VWS V14.01,2013-04-28 04:28:00,
2013-04-28 00:33:00,57.7,42.6,30.23,South,170,0.0,6.0,57,0.00,,,0.00,0.00,VWS V14.01,2013-04-28 04:33:00,
2013-04-28 00:38:00,57.6,42.5,30.23,South,183,0.0,9.0,57,0.00,,,0.00,0.00,VWS V14.01,2013-04-28 04:38:00,
2013-04-28 00:43:00,57.5,42.4,30.23,South,172,0.0,5.0,57,0.00,,,0.00,0.00,VWS V14.01,2013-04-28 04:43:00,
2013-04-28 00:48:00,57.3,42.2,30.23,South,176,1.0,4.0,57,0.00,,,0.00,0.00,VWS V14.01,2013-04-28 04:48:00,
2013-04-28 00:53:00,57.1,42.0,30.23,SSW,206,1.0,3.0,57,0.00,,,0.00,0.00,VWS V14.01,2013-04-28 04:53:00,
2013-04-28 00:58:00,56.9,41.8,30.23,South,191,0.0,2.0,57,0.00,,,0.00,0.00,VWS V14.01,2013-04-28 04:58:00,
2013-04-28 01:03:00,56.8,41.8,30.23,South,191,0.0,2.0,57,0.00,,,0.00,0.00,VWS V14.01,2013-04-28 05:03:00,
2013-04-28 01:08:00,56.6,41.6,30.23,South,191,0.0,0.0,57,0.00,,,0.00,0.00,VWS V14.01,2013-04-28 05:08:00,
2013-04-28 01:13:00,56.4,41.8,30.23,SSW,204,0.0,4.0,58,0.00,,,0.00,0.00,VWS V14.01,2013-04-28 05:13:00,
2013-04-28 01:19:00,56.1,41.5,30.24,South,187,0.0,1.0,58,0.00,,,0.00,0.00,VWS V14.01,2013-04-28 05:19:00,
2013-04-28 01:24:00,55.9,41.3,30.23,SSE,148,1.0,3.0,58,0.00,,,0.00,0.00,VWS V14.01,2013-04-28 05:24:00,
2013-04-28 01:29:00,55.7,41.6,30.23,South,186,0.0,1.0,59,0.00,,,0.00,0.00,VWS V14.01,2013-04-28 05:29:00,
2013-04-28 01:34:00,55.6,41.5,30.23,South,187,0.0,2.0,59,0.00,,,0.00,0.00,VWS V14.01,2013-04-28 05:34:00,
2013-04-28 01:39:00,55.5,41.9,30.23,South,182,0.0,4.0,60,0.00,,,0.00,0.00,VWS V14.01,2013-04-28 05:39:00,
2013-04-28 01:44:00,55.3,41.7,30.23,South,188,0.0,1.0,60,0.00,,,0.00,0.00,VWS V14.01,2013-04-28 05:44:00,
2013-04-28 01:49:00,55.1,41.5,30.23,SSW,205,3.0,3.0,60,0.00,,,0.00,0.00,VWS V14.01,2013-04-28 05:49:00,
2013-04-28 01:54:00,55.0,41.4,30.23,SSW,196,0.0,6.0,60,0.00,,,0.00,0.00,VWS V14.01,2013-04-28 05:54:00,
2013-04-28 01:59:00,54.9,41.3,30.23,SSW,197,1.0,6.0,60,0.00,,,0.00,0.00,VWS V14.01,2013-04-28 05:59:00,
2013-04-28 02:04:00,54.9,41.3,30.23,South,179,2.0,7.0,60,0.00,,,0.00,0.00,VWS V14.01,2013-04-28 06:04:00,
2013-04-28 02:09:00,54.9,41.3,30.23,South,183,0.0,6.0,60,0.00,,,0.00,0.00,VWS V14.01,2013-04-28 06:09:00,
2013-04-28 02:14:00,54.9,41.3,30.23,SSW,211,4.0,5.0,60,0.00,,,0.00,0.00,VWS V14.01,2013-04-28 06:14:00,
2013-04-28 02:19:00,55.0,41.4,30.23,SSE,168,0.0,4.0,60,0.00,,,0.00,0.00,VWS V14.01,2013-04-28 06:19:00,
2013-04-28 02:25:00,54.9,41.3,30.23,SSE,159,1.0,5.0,60,0.00,,,0.00,0.00,VWS V14.01,2013-04-28 06:25:00,
2013-04-28 02:30:00,54.9,41.7,30.23,South,178,0.0,4.0,61,0.00,,,0.00,0.00,VWS V14.01,2013-04-28 06:30:00,
2013-04-28 02:35:00,54.8,41.6,30.22,South,184,2.0,2.0,61,0.00,,,0.00,0.00,VWS V14.01,2013-04-28 06:35:00,
2013-04-28 02:40:00,54.7,41.1,30.22,South,181,1.0,1.0,60,0.00,,,0.00,0.00,VWS V14.01,2013-04-28 06:40:00,
2013-04-28 02:45:00,54.6,41.0,30.22,SSE,167,1.0,3.0,60,0.00,,,0.00,0.00,VWS V14.01,2013-04-28 06:45:00,
2013-04-28 02:50:00,54.5,40.9,30.21,South,176,0.0,1.0,60,0.00,,,0.00,0.00,VWS V14.01,2013-04-28 06:50:00,
2013-04-28 02:55:00,54.4,41.2,30.20,SSE,167,0.0,2.0,61,0.00,,,0.00,0.00,VWS V14.01,2013-04-28 06:55:00,
2013-04-28 03:00:00,54.3,40.7,30.20,SSE,161,0.0,2.0,60,0.00,,,0.00,0.00,VWS V14.01,2013-04-28 07:00:00,
2013-04-28 03:05:00,54.2,40.6,30.20,SSW,205,5.0,5.0,60,0.00,,,0.00,0.00,VWS V14.01,2013-04-28 07:05:00,
2013-04-28 03:10:00,54.2,40.6,30.20,SSW,197,0.0,5.0,60,0.00,,,0.00,0.00,VWS V14.01,2013-04-28 07:10:00,
2013-04-28 03:15:00,54.2,40.6,30.20,SSW,196,0.0,0.0,60,0.00,,,0.00,0.00,VWS V14.01,2013-04-28 07:15:00,
2013-04-28 03:20:00,54.1,41.0,30.20,SSW,196,0.0,0.0,61,0.00,,,0.00,0.00,VWS V14.01,2013-04-28 07:20:00,
2013-04-28 03:25:00,54.0,40.9,30.20,SSW,195,0.0,0.0,61,0.00,,,0.00,0.00,VWS V14.01,2013-04-28 07:25:00,
2013-04-28 03:30:00,53.8,41.1,30.20,South,186,1.0,1.0,62,0.00,,,0.00,0.00,VWS V14.01,2013-04-28 07:30:00,
2013-04-28 03:35:00,53.6,41.3,30.20,SSW,196,0.0,0.0,63,0.00,,,0.00,0.00,VWS V14.01,2013-04-28 07:35:00,
2013-04-28 03:41:00,53.5,41.6,30.20,SSE,161,2.0,2.0,64,0.00,,,0.00,0.00,VWS V14.01,2013-04-28 07:41:00,
2013-04-28 03:46:00,53.6,41.7,30.20,South,180,0.0,3.0,64,0.00,,,0.00,0.00,VWS V14.01,2013-04-28 07:46:00,
2013-04-28 03:51:00,53.7,41.8,30.19,SSE,164,0.0,3.0,64,0.00,,,0.00,0.00,VWS V14.01,2013-04-28 07:51:00,
2013-04-28 03:56:00,53.9,42.0,30.19,South,184,0.0,2.0,64,0.00,,,0.00,0.00,VWS V14.01,2013-04-28 07:56:00,
2013-04-28 04:01:00,53.8,41.9,30.19,South,180,5.0,5.0,64,0.00,,,0.00,0.00,VWS V14.01,2013-04-28 08:01:00,
2013-04-28 04:06:00,53.7,41.8,30.19,SSW,211,3.0,5.0,64,0.00,,,0.00,0.00,VWS V14.01,2013-04-28 08:06:00,
2013-04-28 04:11:00,53.6,41.7,30.19,SSW,207,0.0,0.0,64,0.00,,,0.00,0.00,VWS V14.01,2013-04-28 08:11:00,
2013-04-28 04:16:00,53.6,41.7,30.19,SSW,206,0.0,1.0,64,0.00,,,0.00,0.00,VWS V14.01,2013-04-28 08:16:00,
2013-04-28 04:21:00,53.4,41.1,30.19,SSW,200,0.0,6.0,63,0.00,,,0.00,0.00,VWS V14.01,2013-04-28 08:21:00,
2013-04-28 04:26:00,53.2,41.0,30.19,South,169,0.0,2.0,63,0.00,,,0.00,0.00,VWS V14.01,2013-04-28 08:26:00,
2013-04-28 04:31:00,53.0,40.3,30.19,South,183,3.0,6.0,62,0.00,,,0.00,0.00,VWS V14.01,2013-04-28 08:31:00,
2013-04-28 04:37:00,53.0,40.3,30.20,South,179,1.0,3.0,62,0.00,,,0.00,0.00,VWS V14.01,2013-04-28 08:37:00,
2013-04-28 04:42:00,53.1,40.4,30.20,South,180,2.0,3.0,62,0.00,,,0.00,0.00,VWS V14.01,2013-04-28 08:42:00,
2013-04-28 04:47:00,53.2,40.1,30.19,SSE,157,2.0,3.0,61,0.00,,,0.00,0.00,VWS V14.01,2013-04-28 08:47:00,
2013-04-28 04:52:00,53.2,40.1,30.19,South,182,0.0,4.0,61,0.00,,,0.00,0.00,VWS V14.01,2013-04-28 08:52:00,
2013-04-28 04:57:00,53.2,39.7,30.19,South,184,3.0,7.0,60,0.00,,,0.00,0.00,VWS V14.01,2013-04-28 08:57:00,
2013-04-28 05:02:00,53.2,40.1,30.19,SSE,165,2.0,2.0,61,0.00,,,0.00,0.00,VWS V14.01,2013-04-28 09:02:00,
2013-04-28 05:07:00,53.2,39.7,30.19,SSW,213,0.0,4.0,60,0.00,,,0.00,0.00,VWS V14.01,2013-04-28 09:07:00,
2013-04-28 05:12:00,53.2,39.7,30.19,SSW,200,2.0,5.0,60,0.00,,,0.00,0.00,VWS V14.01,2013-04-28 09:12:00,
2013-04-28 05:17:00,53.2,39.7,30.19,SSW,192,0.0,2.0,60,0.00,,,0.00,0.00,VWS V14.01,2013-04-28 09:17:00,
2013-04-28 05:22:00,53.2,39.7,30.19,SSW,211,5.0,5.0,60,0.00,,,0.00,0.00,VWS V14.01,2013-04-28 09:22:00,
2013-04-28 05:27:00,53.1,39.6,30.18,SSW,199,0.0,5.0,60,0.00,,,0.00,0.00,VWS V14.01,2013-04-28 09:27:00,
2013-04-28 05:32:00,53.1,39.6,30.18,SSW,194,0.0,5.0,60,0.00,,,0.00,0.00,VWS V14.01,2013-04-28 09:32:00,
2013-04-28 05:38:00,53.0,39.9,30.18,SSW,199,0.0,1.0,61,0.00,,,0.00,0.00,VWS V14.01,2013-04-28 09:38:00,
2013-04-28 05:43:00,52.9,39.8,30.18,SSW,205,0.0,4.0,61,0.00,,,0.00,0.00,VWS V14.01,2013-04-28 09:43:00,
2013-04-28 05:48:00,52.8,39.7,30.18,SW,215,0.0,5.0,61,0.00,,,0.00,0.00,VWS V14.01,2013-04-28 09:48:00,
2013-04-28 05:53:00,52.7,40.1,30.19,SSW,198,0.0,6.0,62,0.00,,,0.00,0.00,VWS V14.01,2013-04-28 09:53:00,
2013-04-28 05:58:00,52.7,40.1,30.19,South,174,0.0,4.0,62,0.00,,,0.00,0.00,VWS V14.01,2013-04-28 09:58:00,
2013-04-28 06:03:00,52.7,40.1,30.19,SSE,148,2.0,5.0,62,0.00,,,0.00,0.00,VWS V14.01,2013-04-28 10:03:00,
2013-04-28 06:08:00,52.7,40.1,30.19,South,170,0.0,1.0,62,0.00,,,0.00,0.00,VWS V14.01,2013-04-28 10:08:00,
2013-04-28 06:13:00,52.6,40.0,30.19,South,175,0.0,1.0,62,0.00,,,0.00,0.00,VWS V14.01,2013-04-28 10:13:00,
2013-04-28 06:18:00,52.6,40.0,30.19,South,176,0.0,0.0,62,0.00,,,0.00,5.00,VWS V14.01,2013-04-28 10:18:00,
2013-04-28 06:23:00,52.5,39.9,30.19,South,176,0.0,1.0,62,0.00,,,0.00,7.00,VWS V14.01,2013-04-28 10:23:00,
2013-04-28 06:28:00,52.3,39.7,30.19,South,172,0.0,1.0,62,0.00,,,0.00,12.00,VWS V14.01,2013-04-28 10:28:00,
2013-04-28 06:34:00,52.2,39.6,30.19,South,173,0.0,4.0,62,0.00,,,0.00,16.00,VWS V14.01,2013-04-28 10:34:00,
2013-04-28 06:39:00,52.1,39.5,30.20,South,173,0.0,1.0,62,0.00,,,0.00,19.00,VWS V14.01,2013-04-28 10:39:00,
2013-04-28 06:44:00,52.1,39.5,30.20,SSW,194,0.0,2.0,62,0.00,,,0.00,23.00,VWS V14.01,2013-04-28 10:44:00,
2013-04-28 06:49:00,52.1,39.5,30.20,SSW,198,0.0,5.0,62,0.00,,,0.00,26.00,VWS V14.01,2013-04-28 10:49:00,
2013-04-28 06:54:00,52.2,39.6,30.20,SSE,164,0.0,6.0,62,0.00,,,0.00,32.00,VWS V14.01,2013-04-28 10:54:00,
2013-04-28 06:59:00,52.4,39.8,30.20,South,173,4.0,6.0,62,0.00,,,0.00,35.00,VWS V14.01,2013-04-28 10:59:00,
2013-04-28 07:04:00,52.7,40.1,30.20,South,173,0.0,4.0,62,0.00,,,0.00,42.00,VWS V14.01,2013-04-28 11:04:00,
2013-04-28 07:09:00,53.0,40.3,30.20,South,180,0.0,6.0,62,0.00,,,0.00,58.00,VWS V14.01,2013-04-28 11:09:00,
2013-04-28 07:14:00,53.3,40.6,30.20,South,181,0.0,4.0,62,0.00,,,0.00,97.00,VWS V14.01,2013-04-28 11:14:00,
2013-04-28 07:19:00,53.7,40.6,30.20,SSE,159,0.0,7.0,61,0.00,,,0.00,109.00,VWS V14.01,2013-04-28 11:19:00,
2013-04-28 07:24:00,54.1,41.0,30.20,SSE,155,4.0,6.0,61,0.00,,,0.00,116.00,VWS V14.01,2013-04-28 11:24:00,
2013-04-28 07:29:00,54.6,41.0,30.20,SSE,159,1.0,6.0,60,0.00,,,0.00,118.00,VWS V14.01,2013-04-28 11:29:00,
2013-04-28 07:35:00,54.9,41.7,30.20,SE,135,2.0,6.0,61,0.00,,,0.00,109.00,VWS V14.01,2013-04-28 11:35:00,
2013-04-28 07:40:00,55.3,41.7,30.20,South,173,3.0,7.0,60,0.00,,,0.00,123.00,VWS V14.01,2013-04-28 11:40:00,
2013-04-28 07:45:00,55.6,41.5,30.20,South,180,2.0,7.0,59,0.00,,,0.00,109.00,VWS V14.01,2013-04-28 11:45:00,
2013-04-28 07:50:00,55.9,41.8,30.20,SSE,159,3.0,6.0,59,0.00,,,0.00,123.00,VWS V14.01,2013-04-28 11:50:00,
2013-04-28 07:55:00,56.3,42.6,30.20,SSE,152,1.0,6.0,60,0.00,,,0.00,142.00,VWS V14.01,2013-04-28 11:55:00,
2013-04-28 08:00:00,56.6,41.6,30.20,SSE,164,2.0,7.0,57,0.00,,,0.00,185.00,VWS V14.01,2013-04-28 12:00:00,
2013-04-28 08:05:00,57.0,42.4,30.20,SSE,156,1.0,8.0,58,0.00,,,0.00,174.00,VWS V14.01,2013-04-28 12:05:00,
2013-04-28 08:10:00,57.3,41.8,30.20,SE,140,2.0,10.0,56,0.00,,,0.00,211.00,VWS V14.01,2013-04-28 12:10:00,
2013-04-28 08:15:00,57.6,42.0,30.20,South,173,5.0,13.0,56,0.00,,,0.00,221.00,VWS V14.01,2013-04-28 12:15:00,
2013-04-28 08:20:00,57.9,42.8,30.19,South,174,4.0,9.0,57,0.00,,,0.00,250.00,VWS V14.01,2013-04-28 12:20:00,
2013-04-28 08:25:00,58.2,42.6,30.19,South,182,12.0,12.0,56,0.00,,,0.00,269.00,VWS V14.01,2013-04-28 12:25:00,
2013-04-28 08:30:00,58.4,42.3,30.19,SSE,164,6.0,10.0,55,0.00,,,0.00,306.00,VWS V14.01,2013-04-28 12:30:00,
2013-04-28 08:36:00,58.7,41.6,30.20,South,169,8.0,12.0,53,0.00,,,0.00,315.00,VWS V14.01,2013-04-28 12:36:00,
2013-04-28 08:41:00,58.9,41.8,30.20,South,182,6.0,10.0,53,0.00,,,0.00,316.00,VWS V14.01,2013-04-28 12:41:00,
2013-04-28 08:46:00,59.0,41.9,30.20,SSE,150,3.0,12.0,53,0.00,,,0.00,309.00,VWS V14.01,2013-04-28 12:46:00,
2013-04-28 08:51:00,59.0,42.4,30.19,South,173,1.0,6.0,54,0.00,,,0.00,276.00,VWS V14.01,2013-04-28 12:51:00,
2013-04-28 08:56:00,59.0,41.9,30.19,SSW,196,4.0,7.0,53,0.00,,,0.00,290.00,VWS V14.01,2013-04-28 12:56:00,
2013-04-28 09:01:00,59.0,42.4,30.20,SSW,209,6.0,8.0,54,0.00,,,0.00,325.00,VWS V14.01,2013-04-28 13:01:00,
2013-04-28 09:06:00,59.0,41.4,30.20,South,186,9.0,10.0,52,0.00,,,0.00,320.00,VWS V14.01,2013-04-28 13:06:00,
2013-04-28 09:11:00,59.0,41.4,30.20,South,181,7.0,15.0,52,0.00,,,0.00,322.00,VWS V14.01,2013-04-28 13:11:00,
2013-04-28 09:16:00,59.0,40.9,30.20,SSE,167,7.0,15.0,51,0.00,,,0.00,327.00,VWS V14.01,2013-04-28 13:16:00,
2013-04-28 09:21:00,59.0,41.9,30.20,South,171,9.0,9.0,53,0.00,,,0.00,287.00,VWS V14.01,2013-04-28 13:21:00,
2013-04-28 09:26:00,59.0,41.9,30.20,SSE,160,4.0,10.0,53,0.00,,,0.00,288.00,VWS V14.01,2013-04-28 13:26:00,
2013-04-28 09:32:00,59.0,41.9,30.20,South,189,6.0,11.0,53,0.00,,,0.00,306.00,VWS V14.01,2013-04-28 13:32:00,
2013-04-28 09:37:00,59.0,41.9,30.20,South,170,6.0,8.0,53,0.00,,,0.00,301.00,VWS V14.01,2013-04-28 13:37:00,
2013-04-28 09:42:00,59.3,42.2,30.20,South,189,6.0,14.0,53,0.00,,,0.00,360.00,VWS V14.01,2013-04-28 13:42:00,
2013-04-28 09:47:00,59.7,43.0,30.20,SSW,194,3.0,7.0,54,0.00,,,0.00,584.00,VWS V14.01,2013-04-28 13:47:00,
2013-04-28 09:52:00,60.2,42.5,30.20,SSW,192,3.0,8.0,52,0.00,,,0.00,350.00,VWS V14.01,2013-04-28 13:52:00,
2013-04-28 09:57:00,60.5,43.3,30.20,South,172,1.0,6.0,53,0.00,,,0.00,345.00,VWS V14.01,2013-04-28 13:57:00,
2013-04-28 10:02:00,60.7,44.5,30.20,SE,144,2.0,7.0,55,0.00,,,0.00,313.00,VWS V14.01,2013-04-28 14:02:00,
2013-04-28 10:07:00,60.6,43.4,30.20,South,174,3.0,11.0,53,0.00,,,0.00,276.00,VWS V14.01,2013-04-28 14:07:00,
2013-04-28 10:12:00,60.5,43.8,30.20,South,174,6.0,9.0,54,0.00,,,0.00,265.00,VWS V14.01,2013-04-28 14:12:00,
2013-04-28 10:17:00,60.4,43.2,30.20,South,186,5.0,9.0,53,0.00,,,0.00,244.00,VWS V14.01,2013-04-28 14:17:00,
2013-04-28 10:22:00,60.3,42.6,30.20,SSW,194,6.0,18.0,52,0.00,,,0.00,253.00,VWS V14.01,2013-04-28 14:22:00,
2013-04-28 10:27:00,60.2,42.5,30.20,South,182,7.0,10.0,52,0.00,,,0.00,237.00,VWS V14.01,2013-04-28 14:27:00,
2013-04-28 10:33:00,60.3,43.1,30.20,South,188,5.0,11.0,53,0.00,,,0.00,253.00,VWS V14.01,2013-04-28 14:33:00,
2013-04-28 10:38:00,60.4,43.2,30.20,SSE,167,4.0,8.0,53,0.00,,,0.00,234.00,VWS V14.01,2013-04-28 14:38:00,
2013-04-28 10:43:00,60.6,43.9,30.20,South,176,3.0,7.0,54,0.00,,,0.00,237.00,VWS V14.01,2013-04-28 14:43:00,
2013-04-28 10:48:00,60.7,44.0,30.20,South,190,2.0,9.0,54,0.00,,,0.00,218.00,VWS V14.01,2013-04-28 14:48:00,
2013-04-28 10:53:00,60.7,43.0,30.20,SSE,167,4.0,9.0,52,0.00,,,0.00,220.00,VWS V14.01,2013-04-28 14:53:00,
2013-04-28 10:58:00,60.8,43.6,30.20,South,186,4.0,6.0,53,0.00,,,0.00,209.00,VWS V14.01,2013-04-28 14:58:00,
2013-04-28 11:03:00,60.9,43.7,30.20,South,186,7.0,9.0,53,0.00,,,0.00,225.00,VWS V14.01,2013-04-28 15:03:00,
2013-04-28 11:08:00,61.0,44.2,30.20,South,174,3.0,9.0,54,0.00,,,0.00,255.00,VWS V14.01,2013-04-28 15:08:00,
2013-04-28 11:13:00,61.1,44.3,30.20,SE,140,2.0,7.0,54,0.00,,,0.00,250.00,VWS V14.01,2013-04-28 15:13:00,
2013-04-28 11:18:00,61.0,43.3,30.21,SSW,211,4.0,12.0,52,0.00,,,0.00,251.00,VWS V14.01,2013-04-28 15:18:00,
2013-04-28 11:23:00,60.9,42.7,30.21,South,169,3.0,12.0,51,0.00,,,0.00,248.00,VWS V14.01,2013-04-28 15:23:00,
2013-04-28 11:28:00,60.8,43.1,30.21,South,171,4.0,9.0,52,0.00,,,0.00,223.00,VWS V14.01,2013-04-28 15:28:00,
2013-04-28 11:33:00,60.8,43.6,30.21,SSE,165,2.0,9.0,53,0.00,,,0.00,199.00,VWS V14.01,2013-04-28 15:33:00,
2013-04-28 11:39:00,60.7,44.0,30.21,SSE,168,4.0,7.0,54,0.00,,,0.00,162.00,VWS V14.01,2013-04-28 15:39:00,
2013-04-28 11:44:00,60.6,44.4,30.21,South,169,5.0,6.0,55,0.00,,,0.00,148.00,VWS V14.01,2013-04-28 15:44:00,
2013-04-28 11:49:00,60.4,43.2,30.21,South,177,6.0,10.0,53,0.00,,,0.00,144.00,VWS V14.01,2013-04-28 15:49:00,
2013-04-28 11:54:00,60.2,44.0,30.21,South,171,0.0,9.0,55,0.00,,,0.00,142.00,VWS V14.01,2013-04-28 15:54:00,
2013-04-28 11:59:00,60.0,43.3,30.21,South,185,7.0,9.0,54,0.00,,,0.00,153.00,VWS V14.01,2013-04-28 15:59:00,
2013-04-28 12:04:00,59.9,44.2,30.21,South,175,1.0,10.0,56,0.00,,,0.00,148.00,VWS V14.01,2013-04-28 16:04:00,
2013-04-28 12:09:00,59.8,43.6,30.20,SSW,193,2.0,11.0,55,0.00,,,0.00,171.00,VWS V14.01,2013-04-28 16:09:00,
2013-04-28 12:14:00,59.8,43.6,30.21,SSW,193,7.0,11.0,55,0.00,,,0.00,197.00,VWS V14.01,2013-04-28 16:14:00,
2013-04-28 12:19:00,59.8,44.1,30.20,South,181,6.0,9.0,56,0.00,,,0.00,220.00,VWS V14.01,2013-04-28 16:19:00,
2013-04-28 12:25:00,59.8,44.5,30.20,SSW,204,2.0,11.0,57,0.00,,,0.00,229.00,VWS V14.01,2013-04-28 16:25:00,
2013-04-28 12:30:00,59.8,44.1,30.21,South,178,3.0,10.0,56,0.00,,,0.00,190.00,VWS V14.01,2013-04-28 16:30:00,
2013-04-28 12:35:00,59.7,44.9,30.21,South,175,7.0,11.0,58,0.00,,,0.00,181.00,VWS V14.01,2013-04-28 16:35:00,
2013-04-28 12:40:00,59.5,44.7,30.21,SSW,194,7.0,10.0,58,0.00,,,0.00,174.00,VWS V14.01,2013-04-28 16:40:00,
2013-04-28 12:45:00,59.0,45.2,30.21,SSW,198,7.0,9.0,60,0.00,,,0.00,171.00,VWS V14.01,2013-04-28 16:45:00,
2013-04-28 12:50:00,59.0,45.6,30.21,SSE,168,5.0,10.0,61,0.00,,,0.00,146.00,VWS V14.01,2013-04-28 16:50:00,
2013-04-28 12:55:00,58.4,45.9,30.20,South,179,7.0,12.0,63,0.00,,,0.00,151.00,VWS V14.01,2013-04-28 16:55:00,
2013-04-28 13:00:00,58.0,46.3,30.20,South,188,1.0,8.0,65,0.00,,,0.00,128.00,VWS V14.01,2013-04-28 17:00:00,
2013-04-28 13:05:00,57.6,46.7,30.20,South,183,0.0,7.0,67,0.00,,,0.00,135.00,VWS V14.01,2013-04-28 17:05:00,
2013-04-28 13:10:00,57.2,46.8,30.21,SSW,205,7.0,12.0,68,0.00,,,0.00,160.00,VWS V14.01,2013-04-28 17:10:00,
2013-04-28 13:15:00,56.9,47.2,30.20,SSE,153,8.0,9.0,70,0.00,,,0.00,127.00,VWS V14.01,2013-04-28 17:15:00,
2013-04-28 13:20:00,56.5,46.8,30.21,South,177,0.0,9.0,70,0.00,,,0.00,88.00,VWS V14.01,2013-04-28 17:20:00,
2013-04-28 13:25:00,56.2,46.6,30.20,South,180,3.0,12.0,70,0.01,,,0.01,113.00,VWS V14.01,2013-04-28 17:25:00,
2013-04-28 13:30:00,55.9,47.0,30.20,SSE,163,4.0,8.0,72,0.01,,,0.01,105.00,VWS V14.01,2013-04-28 17:30:00,
2013-04-28 13:35:00,55.6,46.7,30.20,SSW,203,9.0,9.0,72,0.01,,,0.01,98.00,VWS V14.01,2013-04-28 17:35:00,
2013-04-28 13:41:00,55.2,46.7,30.21,SSW,193,2.0,5.0,73,0.02,,,0.02,72.00,VWS V14.01,2013-04-28 17:41:00,
2013-04-28 13:46:00,54.9,47.1,30.20,SSW,196,4.0,5.0,75,0.02,,,0.02,81.00,VWS V14.01,2013-04-28 17:46:00,
2013-04-28 13:51:00,54.5,47.5,30.21,South,182,5.0,5.0,77,0.02,,,0.02,121.00,VWS V14.01,2013-04-28 17:51:00,
2013-04-28 13:56:00,54.2,47.5,30.20,South,190,7.0,9.0,78,0.03,,,0.03,111.00,VWS V14.01,2013-04-28 17:56:00,
2013-04-28 14:01:00,53.9,47.5,30.21,South,183,3.0,6.0,79,0.03,,,0.03,77.00,VWS V14.01,2013-04-28 18:01:00,
2013-04-28 14:06:00,53.7,47.7,30.21,SSW,211,9.0,9.0,80,0.04,,,0.04,54.00,VWS V14.01,2013-04-28 18:06:00,
2013-04-28 14:11:00,53.3,47.3,30.21,SSW,205,7.0,9.0,80,0.05,,,0.05,51.00,VWS V14.01,2013-04-28 18:11:00,
2013-04-28 14:16:00,53.0,47.7,30.21,SSE,155,4.0,6.0,82,0.05,,,0.05,70.00,VWS V14.01,2013-04-28 18:16:00,
2013-04-28 14:21:00,52.8,47.8,30.20,South,174,3.0,8.0,83,0.06,,,0.06,58.00,VWS V14.01,2013-04-28 18:21:00,
2013-04-28 14:26:00,52.6,47.6,30.20,South,171,4.0,8.0,83,0.06,,,0.07,86.00,VWS V14.01,2013-04-28 18:26:00,
2013-04-28 14:31:00,52.4,47.7,30.20,South,184,3.0,12.0,84,0.07,,,0.08,77.00,VWS V14.01,2013-04-28 18:31:00,
2013-04-28 14:36:00,52.3,47.9,30.20,South,183,4.0,7.0,85,0.07,,,0.08,88.00,VWS V14.01,2013-04-28 18:36:00,
2013-04-28 14:42:00,52.3,47.9,30.21,SSE,163,4.0,7.0,85,0.07,,,0.09,69.00,VWS V14.01,2013-04-28 18:42:00,
2013-04-28 14:47:00,52.1,48.0,30.20,South,183,2.0,7.0,86,0.08,,,0.10,76.00,VWS V14.01,2013-04-28 18:47:00,
2013-04-28 14:52:00,52.0,48.0,30.20,South,178,2.0,8.0,86,0.09,,,0.11,90.00,VWS V14.01,2013-04-28 18:52:00,
2013-04-28 14:57:00,51.9,48.2,30.20,South,174,6.0,13.0,87,0.09,,,0.12,132.00,VWS V14.01,2013-04-28 18:57:00,
2013-04-28 15:02:00,51.9,48.2,30.20,South,173,2.0,5.0,87,0.09,,,0.12,127.00,VWS V14.01,2013-04-28 19:02:00,
2013-04-28 15:07:00,51.9,48.2,30.19,South,178,2.0,8.0,87,0.09,,,0.13,114.00,VWS V14.01,2013-04-28 19:07:00,
2013-04-28 15:12:00,51.8,48.1,30.19,South,184,3.0,6.0,87,0.10,,,0.14,118.00,VWS V14.01,2013-04-28 19:12:00,
2013-04-28 15:17:00,51.8,48.4,30.19,South,181,0.0,3.0,88,0.10,,,0.15,104.00,VWS V14.01,2013-04-28 19:17:00,
2013-04-28 15:22:00,51.9,48.8,30.18,South,182,0.0,5.0,89,0.09,,,0.15,113.00,VWS V14.01,2013-04-28 19:22:00,
2013-04-28 15:27:00,52.0,48.9,30.18,SSE,162,3.0,7.0,89,0.09,,,0.16,123.00,VWS V14.01,2013-04-28 19:27:00,
2013-04-28 15:33:00,52.0,48.9,30.18,South,179,1.0,6.0,89,0.08,,,0.16,114.00,VWS V14.01,2013-04-28 19:33:00,
2013-04-28 15:38:00,52.1,49.3,30.17,SE,138,0.0,4.0,90,0.08,,,0.16,142.00,VWS V14.01,2013-04-28 19:38:00,
2013-04-28 15:43:00,52.1,49.3,30.18,SSE,161,0.0,3.0,90,0.07,,,0.16,116.00,VWS V14.01,2013-04-28 19:43:00,
2013-04-28 15:48:00,52.3,49.5,30.17,South,172,0.0,2.0,90,0.06,,,0.16,121.00,VWS V14.01,2013-04-28 19:48:00,
2013-04-28 15:53:00,52.3,49.5,30.17,SSE,156,0.0,4.0,90,0.05,,,0.16,144.00,VWS V14.01,2013-04-28 19:53:00,
2013-04-28 15:58:00,52.4,49.6,30.17,South,178,0.0,2.0,90,0.05,,,0.16,125.00,VWS V14.01,2013-04-28 19:58:00,
2013-04-28 16:03:00,52.4,49.6,30.16,SSE,157,1.0,8.0,90,0.05,,,0.17,111.00,VWS V14.01,2013-04-28 20:03:00,
2013-04-28 16:08:00,52.5,49.4,30.16,SE,142,1.0,6.0,89,0.04,,,0.17,97.00,VWS V14.01,2013-04-28 20:08:00,
2013-04-28 16:13:00,52.5,49.4,30.16,SSE,168,3.0,4.0,89,0.03,,,0.17,97.00,VWS V14.01,2013-04-28 20:13:00,
2013-04-28 16:18:00,52.5,49.4,30.16,South,176,0.0,6.0,89,0.03,,,0.17,90.00,VWS V14.01,2013-04-28 20:18:00,
2013-04-28 16:23:00,52.6,49.5,30.16,South,169,0.0,4.0,89,0.02,,,0.17,81.00,VWS V14.01,2013-04-28 20:23:00,
2013-04-28 16:28:00,52.6,49.5,30.16,South,171,1.0,4.0,89,0.02,,,0.17,58.00,VWS V14.01,2013-04-28 20:28:00,
2013-04-28 16:33:00,52.6,49.2,30.16,SSW,199,0.0,4.0,88,0.01,,,0.17,53.00,VWS V14.01,2013-04-28 20:33:00,
2013-04-28 16:38:00,52.7,49.2,30.15,SSW,192,0.0,3.0,88,0.01,,,0.17,76.00,VWS V14.01,2013-04-28 20:38:00,
2013-04-28 16:44:00,52.7,49.2,30.15,South,191,0.0,3.0,88,0.01,,,0.17,83.00,VWS V14.01,2013-04-28 20:44:00,
2013-04-28 16:49:00,52.9,49.5,30.16,South,191,0.0,1.0,88,0.01,,,0.17,49.00,VWS V14.01,2013-04-28 20:49:00,
2013-04-28 16:54:00,52.9,49.5,30.15,SSW,192,0.0,0.0,88,0.01,,,0.17,33.00,VWS V14.01,2013-04-28 20:54:00,
2013-04-28 16:59:00,52.9,49.8,30.15,SSW,192,0.0,1.0,89,0.02,,,0.18,23.00,VWS V14.01,2013-04-28 20:59:00,
2013-04-28 17:04:00,52.8,49.7,30.15,SE,140,0.0,2.0,89,0.02,,,0.18,23.00,VWS V14.01,2013-04-28 21:04:00,
2013-04-28 17:09:00,52.7,49.5,30.15,South,175,2.0,4.0,89,0.01,,,0.18,21.00,VWS V14.01,2013-04-28 21:09:00,
2013-04-28 17:14:00,52.5,49.4,30.14,SE,134,0.0,3.0,89,0.01,,,0.18,23.00,VWS V14.01,2013-04-28 21:14:00,
2013-04-28 17:19:00,52.5,49.4,30.14,SE,134,0.0,2.0,89,0.01,,,0.18,23.00,VWS V14.01,2013-04-28 21:19:00,
2013-04-28 17:24:00,52.4,49.3,30.14,SSE,148,0.0,4.0,89,0.01,,,0.18,18.00,VWS V14.01,2013-04-28 21:24:00,
2013-04-28 17:29:00,52.4,49.0,30.13,SE,131,6.0,6.0,88,0.01,,,0.18,21.00,VWS V14.01,2013-04-28 21:29:00,
2013-04-28 17:34:00,52.3,48.9,30.13,SE,146,0.0,5.0,88,0.01,,,0.18,28.00,VWS V14.01,2013-04-28 21:34:00,
2013-04-28 17:40:00,52.3,48.9,30.12,SE,142,0.0,3.0,88,0.01,,,0.18,32.00,VWS V14.01,2013-04-28 21:40:00,
2013-04-28 17:45:00,52.4,49.0,30.12,SSE,154,0.0,3.0,88,0.01,,,0.18,32.00,VWS V14.01,2013-04-28 21:45:00,
2013-04-28 17:50:00,52.4,49.0,30.12,SSE,154,0.0,0.0,88,0.02,,,0.19,39.00,VWS V14.01,2013-04-28 21:50:00,
2013-04-28 17:55:00,52.4,49.3,30.12,SSE,154,0.0,1.0,89,0.02,,,0.19,46.00,VWS V14.01,2013-04-28 21:55:00,
2013-04-28 18:00:00,52.5,49.4,30.12,SSE,154,0.0,0.0,89,0.02,,,0.19,51.00,VWS V14.01,2013-04-28 22:00:00,
2013-04-28 18:05:00,52.6,49.5,30.12,SSE,153,0.0,0.0,89,0.01,,,0.19,63.00,VWS V14.01,2013-04-28 22:05:00,
2013-04-28 18:10:00,52.6,49.5,30.11,SSE,154,0.0,0.0,89,0.01,,,0.19,65.00,VWS V14.01,2013-04-28 22:10:00,
2013-04-28 18:15:00,52.7,49.8,30.11,SE,143,0.0,1.0,90,0.01,,,0.19,60.00,VWS V14.01,2013-04-28 22:15:00,
2013-04-28 18:20:00,52.8,50.0,30.11,SE,143,0.0,0.0,90,0.01,,,0.19,46.00,VWS V14.01,2013-04-28 22:20:00,
2013-04-28 18:25:00,52.8,50.0,30.11,SSE,148,0.0,0.0,90,0.01,,,0.19,35.00,VWS V14.01,2013-04-28 22:25:00,
2013-04-28 18:30:00,52.8,50.0,30.11,SSE,148,0.0,0.0,90,0.01,,,0.19,32.00,VWS V14.01,2013-04-28 22:30:00,
2013-04-28 18:35:00,52.9,50.0,30.11,SSE,148,0.0,0.0,90,0.01,,,0.19,23.00,VWS V14.01,2013-04-28 22:35:00,
2013-04-28 18:40:00,52.9,50.0,30.10,SSE,148,0.0,1.0,90,0.01,,,0.19,19.00,VWS V14.01,2013-04-28 22:40:00,
2013-04-28 18:45:00,52.9,50.0,30.10,SSE,148,0.0,0.0,90,0.01,,,0.19,18.00,VWS V14.01,2013-04-28 22:45:00,
2013-04-28 18:51:00,52.8,50.0,30.11,SSE,148,0.0,0.0,90,0.00,,,0.19,12.00,VWS V14.01,2013-04-28 22:51:00,
2013-04-28 18:56:00,52.8,50.0,30.10,SSE,148,0.0,0.0,90,0.00,,,0.19,9.00,VWS V14.01,2013-04-28 22:56:00,
2013-04-28 19:01:00,52.8,50.0,30.10,SSE,148,0.0,0.0,90,0.00,,,0.19,9.00,VWS V14.01,2013-04-28 23:01:00,
2013-04-28 19:06:00,52.7,50.2,30.10,SSE,148,0.0,0.0,91,0.00,,,0.19,9.00,VWS V14.01,2013-04-28 23:06:00,
2013-04-28 19:11:00,52.7,50.2,30.10,SSE,148,0.0,0.0,91,0.00,,,0.19,9.00,VWS V14.01,2013-04-28 23:11:00,
2013-04-28 19:16:00,52.6,50.0,30.09,SSE,148,0.0,0.0,91,0.00,,,0.19,9.00,VWS V14.01,2013-04-28 23:16:00,
2013-04-28 19:21:00,52.6,50.0,30.10,SSE,148,0.0,0.0,91,0.00,,,0.19,7.00,VWS V14.01,2013-04-28 23:21:00,
2013-04-28 19:26:00,52.5,50.0,30.10,SSE,148,0.0,0.0,91,0.00,,,0.19,5.00,VWS V14.01,2013-04-28 23:26:00,
2013-04-28 19:31:00,52.5,50.2,30.10,SSE,148,0.0,0.0,92,0.00,,,0.19,0.00,VWS V14.01,2013-04-28 23:31:00,
2013-04-28 19:36:00,52.4,50.2,30.10,SSE,148,0.0,0.0,92,0.00,,,0.19,0.00,VWS V14.01,2013-04-28 23:36:00,
2013-04-28 19:41:00,52.4,50.2,30.10,SSE,148,0.0,0.0,92,0.00,,,0.19,0.00,VWS V14.01,2013-04-28 23:41:00,
2013-04-28 19:46:00,52.4,50.2,30.10,SSE,148,0.0,0.0,92,0.00,,,0.19,0.00,VWS V14.01,2013-04-28 23:46:00,
2013-04-28 19:52:00,52.3,50.0,30.10,SSE,148,0.0,0.0,92,0.00,,,0.19,0.00,VWS V14.01,2013-04-28 23:52:00,
2013-04-28 19:57:00,52.3,50.0,30.09,SSE,148,0.0,0.0,92,0.00,,,0.19,0.00,VWS V14.01,2013-04-28 23:57:00,
2013-04-28 20:02:00,52.2,50.0,30.09,SSE,148,0.0,0.0,92,0.00,,,0.19,0.00,VWS V14.01,2013-04-29 00:02:00,
2013-04-28 20:07:00,52.2,50.0,30.09,SSE,148,0.0,1.0,92,0.00,,,0.19,0.00,VWS V14.01,2013-04-29 00:07:00,
2013-04-28 20:12:00,52.1,49.8,30.10,SSE,148,0.0,0.0,92,0.00,,,0.19,0.00,VWS V14.01,2013-04-29 00:12:00,
2013-04-28 20:17:00,52.1,49.8,30.10,SSE,148,0.0,0.0,92,0.00,,,0.19,0.00,VWS V14.01,2013-04-29 00:17:00,
2013-04-28 20:22:00,52.1,50.1,30.09,SSE,148,0.0,1.0,93,0.00,,,0.19,0.00,VWS V14.01,2013-04-29 00:22:00,
2013-04-28 20:27:00,52.1,50.1,30.09,SSE,148,0.0,0.0,93,0.00,,,0.19,0.00,VWS V14.01,2013-04-29 00:27:00,
2013-04-28 20:32:00,52.1,49.8,30.09,SSE,148,0.0,1.0,92,0.00,,,0.19,0.00,VWS V14.01,2013-04-29 00:32:00,
2013-04-28 20:37:00,52.1,49.8,30.10,South,175,0.0,1.0,92,0.00,,,0.19,0.00,VWS V14.01,2013-04-29 00:37:00,
2013-04-28 20:42:00,52.1,49.8,30.10,South,176,0.0,0.0,92,0.00,,,0.19,0.00,VWS V14.01,2013-04-29 00:42:00,
2013-04-28 20:48:00,52.2,49.7,30.10,SSW,195,0.0,2.0,91,0.00,,,0.19,0.00,VWS V14.01,2013-04-29 00:48:00,
2013-04-28 20:53:00,52.4,49.6,30.11,SSW,195,0.0,1.0,90,0.00,,,0.19,0.00,VWS V14.01,2013-04-29 00:53:00,
2013-04-28 20:58:00,52.5,49.4,30.11,SSW,195,0.0,0.0,89,0.00,,,0.19,0.00,VWS V14.01,2013-04-29 00:58:00,
2013-04-28 21:03:00,52.6,49.5,30.11,South,184,0.0,3.0,89,0.00,,,0.19,0.00,VWS V14.01,2013-04-29 01:03:00,
2013-04-28 21:08:00,52.7,49.2,30.10,South,185,0.0,1.0,88,0.00,,,0.19,0.00,VWS V14.01,2013-04-29 01:08:00,
2013-04-28 21:13:00,52.8,49.0,30.10,South,184,0.0,1.0,87,0.00,,,0.19,0.00,VWS V14.01,2013-04-29 01:13:00,
2013-04-28 21:18:00,52.9,49.1,30.10,South,184,0.0,0.0,87,0.00,,,0.19,0.00,VWS V14.01,2013-04-29 01:18:00,
2013-04-28 21:23:00,53.0,48.9,30.10,South,184,0.0,0.0,86,0.00,,,0.19,0.00,VWS V14.01,2013-04-29 01:23:00,
2013-04-28 21:28:00,53.1,49.0,30.10,South,184,0.0,1.0,86,0.00,,,0.19,0.00,VWS V14.01,2013-04-29 01:28:00,
2013-04-28 21:33:00,53.2,48.5,30.11,South,180,0.0,3.0,84,0.00,,,0.19,0.00,VWS V14.01,2013-04-29 01:33:00,
2013-04-28 21:38:00,53.5,48.5,30.10,South,172,0.0,5.0,83,0.00,,,0.19,0.00,VWS V14.01,2013-04-29 01:38:00,
2013-04-28 21:44:00,53.8,48.1,30.10,SSE,167,0.0,4.0,81,0.00,,,0.19,0.00,VWS V14.01,2013-04-29 01:44:00,
2013-04-28 21:49:00,54.1,48.4,30.11,SSW,194,0.0,0.0,81,0.00,,,0.19,0.00,VWS V14.01,2013-04-29 01:49:00,
2013-04-28 21:54:00,54.2,48.2,30.11,SSW,196,0.0,1.0,80,0.00,,,0.19,0.00,VWS V14.01,2013-04-29 01:54:00,
2013-04-28 21:59:00,54.4,48.0,30.11,South,173,0.0,7.0,79,0.00,,,0.19,0.00,VWS V14.01,2013-04-29 01:59:00,
2013-04-28 22:04:00,54.6,48.2,30.11,SSW,200,1.0,5.0,79,0.00,,,0.19,0.00,VWS V14.01,2013-04-29 02:04:00,
2013-04-28 22:09:00,54.7,48.3,30.11,SSW,204,0.0,7.0,79,0.00,,,0.19,0.00,VWS V14.01,2013-04-29 02:09:00,
2013-04-28 22:14:00,54.8,48.1,30.11,South,187,2.0,7.0,78,0.00,,,0.19,0.00,VWS V14.01,2013-04-29 02:14:00,
2013-04-28 22:19:00,54.9,48.2,30.10,South,190,0.0,2.0,78,0.00,,,0.19,0.00,VWS V14.01,2013-04-29 02:19:00,
2013-04-28 22:24:00,55.0,48.3,30.11,SSE,163,2.0,2.0,78,0.00,,,0.19,0.00,VWS V14.01,2013-04-29 02:24:00,
2013-04-28 22:29:00,55.0,48.3,30.10,SSE,163,0.0,3.0,78,0.00,,,0.19,0.00,VWS V14.01,2013-04-29 02:29:00,
2013-04-28 22:34:00,55.1,48.4,30.11,SSW,192,0.0,5.0,78,0.00,,,0.19,0.00,VWS V14.01,2013-04-29 02:34:00,
2013-04-28 22:40:00,55.1,48.4,30.10,South,171,0.0,6.0,78,0.00,,,0.19,0.00,VWS V14.01,2013-04-29 02:40:00,
2013-04-28 22:45:00,55.2,48.8,30.10,SSW,211,0.0,7.0,79,0.00,,,0.19,0.00,VWS V14.01,2013-04-29 02:45:00,
2013-04-28 22:50:00,55.3,48.9,30.09,SSE,163,0.0,9.0,79,0.00,,,0.19,0.00,VWS V14.01,2013-04-29 02:50:00,
2013-04-28 22:55:00,55.3,48.9,30.10,South,184,2.0,9.0,79,0.00,,,0.19,0.00,VWS V14.01,2013-04-29 02:55:00,
2013-04-28 23:00:00,55.4,49.0,30.10,South,179,2.0,7.0,79,0.00,,,0.19,0.00,VWS V14.01,2013-04-29 03:00:00,
2013-04-28 23:05:00,55.4,49.0,30.10,South,171,2.0,6.0,79,0.00,,,0.19,0.00,VWS V14.01,2013-04-29 03:05:00,
2013-04-28 23:10:00,55.5,49.1,30.09,South,180,4.0,9.0,79,0.00,,,0.19,0.00,VWS V14.01,2013-04-29 03:10:00,
2013-04-28 23:15:00,55.4,49.0,30.09,SSE,163,4.0,6.0,79,0.00,,,0.19,0.00,VWS V14.01,2013-04-29 03:15:00,
2013-04-28 23:20:00,55.4,49.0,30.10,SSW,200,6.0,13.0,79,0.00,,,0.19,0.00,VWS V14.01,2013-04-29 03:20:00,
2013-04-28 23:25:00,55.4,49.0,30.09,South,186,2.0,8.0,79,0.00,,,0.19,0.00,VWS V14.01,2013-04-29 03:25:00,
2013-04-28 23:30:00,55.5,49.1,30.09,SSW,207,1.0,4.0,79,0.00,,,0.19,0.00,VWS V14.01,2013-04-29 03:30:00,
2013-04-28 23:36:00,55.5,49.4,30.10,SSW,198,0.0,1.0,80,0.00,,,0.19,0.00,VWS V14.01,2013-04-29 03:36:00,
2013-04-28 23:41:00,55.4,49.3,30.10,SSW,198,3.0,3.0,80,0.00,,,0.19,0.00,VWS V14.01,2013-04-29 03:41:00,
2013-04-28 23:46:00,55.4,49.3,30.10,North,360,4.0,6.0,80,0.00,,,0.19,0.00,VWS V14.01,2013-04-29 03:46:00,
2013-04-28 23:51:00,55.4,49.3,30.09,SSW,213,5.0,5.0,80,0.00,,,0.19,0.00,VWS V14.01,2013-04-29 03:51:00,
2013-04-28 23:56:00,55.5,49.4,30.09,South,175,1.0,3.0,80,0.00,,,0.19,0.00,VWS V14.01,2013-04-29 03:56:00,